Year,Month,Day,Hour,Minute,Value (Times are PST for temperature in C)
2009,07,18,00,00,21.30
2009,07,18,00,01,21.30
2009,07,18,00,02,21.20
2009,07,18,00,03,21.20
2009,07,18,00,04,21.20
2009,07,18,00,05,21.10
2009,07,18,00,06,21.10
2009,07,18,00,07,21.10
2009,07,18,00,08,21.10
2009,07,18,00,09,21.10
2009,07,18,00,10,21.10
2009,07,18,00,11,21.10
2009,07,18,00,12,21.10
2009,07,18,00,13,21.00
2009,07,18,00,14,21.00
2009,07,18,00,15,20.90
2009,07,18,00,16,20.90
2009,07,18,00,17,20.80
2009,07,18,00,18,20.80
2009,07,18,00,19,20.70
2009,07,18,00,20,20.60
2009,07,18,00,21,20.50
2009,07,18,00,22,20.40
2009,07,18,00,23,20.40
2009,07,18,00,24,20.50
2009,07,18,00,25,20.50
2009,07,18,00,26,20.60
2009,07,18,00,27,20.60
2009,07,18,00,28,20.60
2009,07,18,00,29,20.60
2009,07,18,00,30,20.70
2009,07,18,00,31,20.70
2009,07,18,00,32,20.70
2009,07,18,00,33,20.70
2009,07,18,00,34,20.70
2009,07,18,00,35,20.70
2009,07,18,00,36,20.70
2009,07,18,00,37,20.70
2009,07,18,00,38,20.70
2009,07,18,00,39,20.80
2009,07,18,00,40,20.80
2009,07,18,00,41,20.80
2009,07,18,00,42,20.80
2009,07,18,00,43,20.80
2009,07,18,00,44,20.90
2009,07,18,00,45,20.90
2009,07,18,00,46,21.00
2009,07,18,00,47,21.00
2009,07,18,00,48,21.10
2009,07,18,00,49,21.10
2009,07,18,00,50,21.10
2009,07,18,00,51,21.10
2009,07,18,00,52,21.10
2009,07,18,00,53,21.10
2009,07,18,00,54,21.10
2009,07,18,00,55,21.10
2009,07,18,00,56,21.00
2009,07,18,00,57,21.00
2009,07,18,00,58,21.00
2009,07,18,00,59,20.90
2009,07,18,01,00,20.90
2009,07,18,01,01,20.90
2009,07,18,01,02,20.90
2009,07,18,01,03,20.80
2009,07,18,01,04,20.90
2009,07,18,01,05,20.90
2009,07,18,01,06,20.90
2009,07,18,01,07,20.90
2009,07,18,01,08,20.90
2009,07,18,01,09,20.90
2009,07,18,01,10,20.90
2009,07,18,01,11,20.90
2009,07,18,01,12,21.00
2009,07,18,01,13,21.00
2009,07,18,01,14,21.00
2009,07,18,01,15,20.90
2009,07,18,01,16,20.90
2009,07,18,01,17,20.90
2009,07,18,01,18,20.90
2009,07,18,01,19,20.80
2009,07,18,01,20,20.80
2009,07,18,01,21,20.80
2009,07,18,01,22,20.80
2009,07,18,01,23,20.80
2009,07,18,01,24,20.70
2009,07,18,01,25,20.70
2009,07,18,01,26,20.70
2009,07,18,01,27,20.70
2009,07,18,01,28,20.70
2009,07,18,01,29,20.60
2009,07,18,01,30,20.60
2009,07,18,01,31,20.60
2009,07,18,01,32,20.60
2009,07,18,01,33,20.60
2009,07,18,01,34,20.70
2009,07,18,01,35,20.70
2009,07,18,01,36,20.70
2009,07,18,01,37,20.70
2009,07,18,01,38,20.70
2009,07,18,01,39,20.70
2009,07,18,01,40,20.60
2009,07,18,01,41,20.60
2009,07,18,01,42,20.60
2009,07,18,01,43,20.60
2009,07,18,01,44,20.60
2009,07,18,01,45,20.60
2009,07,18,01,46,20.60
2009,07,18,01,47,20.60
2009,07,18,01,48,20.60
2009,07,18,01,49,20.60
2009,07,18,01,50,20.50
2009,07,18,01,51,20.60
2009,07,18,01,52,20.60
2009,07,18,01,53,20.60
2009,07,18,01,54,20.50
2009,07,18,01,55,20.50
2009,07,18,01,56,20.50
2009,07,18,01,57,20.50
2009,07,18,01,58,20.50
2009,07,18,01,59,20.40
2009,07,18,02,00,20.50
2009,07,18,02,01,20.60
2009,07,18,02,02,20.70
2009,07,18,02,03,20.70
2009,07,18,02,04,20.70
2009,07,18,02,05,20.80
2009,07,18,02,06,20.80
2009,07,18,02,07,20.80
2009,07,18,02,08,20.80
2009,07,18,02,09,20.80
2009,07,18,02,10,20.80
2009,07,18,02,11,20.80
2009,07,18,02,12,20.70
2009,07,18,02,13,20.70
2009,07,18,02,14,20.70
2009,07,18,02,15,20.60
2009,07,18,02,16,20.60
2009,07,18,02,17,20.50
2009,07,18,02,18,20.40
2009,07,18,02,19,20.30
2009,07,18,02,20,20.30
2009,07,18,02,21,20.20
2009,07,18,02,22,20.10
2009,07,18,02,23,20.10
2009,07,18,02,24,20.00
2009,07,18,02,25,20.00
2009,07,18,02,26,19.90
2009,07,18,02,27,19.90
2009,07,18,02,28,19.90
2009,07,18,02,29,19.80
2009,07,18,02,30,19.80
2009,07,18,02,31,19.70
2009,07,18,02,32,19.70
2009,07,18,02,33,19.60
2009,07,18,02,34,19.60
2009,07,18,02,35,19.60
2009,07,18,02,36,19.60
2009,07,18,02,37,19.60
2009,07,18,02,38,19.60
2009,07,18,02,39,19.60
2009,07,18,02,40,19.60
2009,07,18,02,41,19.60
2009,07,18,02,42,19.70
2009,07,18,02,43,19.70
2009,07,18,02,44,19.70
2009,07,18,02,45,19.80
2009,07,18,02,46,19.80
2009,07,18,02,47,19.80
2009,07,18,02,48,19.80
2009,07,18,02,49,19.80
2009,07,18,02,50,19.70
2009,07,18,02,51,19.70
2009,07,18,02,52,19.70
2009,07,18,02,53,19.70
2009,07,18,02,54,19.70
2009,07,18,02,55,19.70
2009,07,18,02,56,19.60
2009,07,18,02,57,19.60
2009,07,18,02,58,19.60
2009,07,18,02,59,19.50
2009,07,18,03,00,19.50
2009,07,18,03,01,19.50
2009,07,18,03,02,19.50
2009,07,18,03,03,19.50
2009,07,18,03,04,19.50
2009,07,18,03,05,19.50
2009,07,18,03,06,19.50
2009,07,18,03,07,19.50
2009,07,18,03,08,19.50
2009,07,18,03,09,19.50
2009,07,18,03,10,19.50
2009,07,18,03,11,19.50
2009,07,18,03,12,19.40
2009,07,18,03,13,19.40
2009,07,18,03,14,19.40
2009,07,18,03,15,19.50
2009,07,18,03,16,19.50
2009,07,18,03,17,19.50
2009,07,18,03,18,19.50
2009,07,18,03,19,19.50
2009,07,18,03,20,19.50
2009,07,18,03,21,19.50
2009,07,18,03,22,19.40
2009,07,18,03,23,19.40
2009,07,18,03,24,19.40
2009,07,18,03,25,19.40
2009,07,18,03,26,19.30
2009,07,18,03,27,19.30
2009,07,18,03,28,19.30
2009,07,18,03,29,19.30
2009,07,18,03,30,19.30
2009,07,18,03,31,19.30
2009,07,18,03,32,19.30
2009,07,18,03,33,19.30
2009,07,18,03,34,19.30
2009,07,18,03,35,19.20
2009,07,18,03,36,19.20
2009,07,18,03,37,19.20
2009,07,18,03,38,19.10
2009,07,18,03,39,19.10
2009,07,18,03,40,19.00
2009,07,18,03,41,19.00
2009,07,18,03,42,19.00
2009,07,18,03,43,19.00
2009,07,18,03,44,18.90
2009,07,18,03,45,19.00
2009,07,18,03,46,19.00
2009,07,18,03,47,19.00
2009,07,18,03,48,19.00
2009,07,18,03,49,19.00
2009,07,18,03,50,19.00
2009,07,18,03,51,19.00
2009,07,18,03,52,19.00
2009,07,18,03,53,19.10
2009,07,18,03,54,19.10
2009,07,18,03,55,19.00
2009,07,18,03,56,19.10
2009,07,18,03,57,19.00
2009,07,18,03,58,19.00
2009,07,18,03,59,19.00
2009,07,18,04,00,18.90
2009,07,18,04,01,18.90
2009,07,18,04,02,18.90
2009,07,18,04,03,18.90
2009,07,18,04,04,18.90
2009,07,18,04,05,19.00
2009,07,18,04,06,19.00
2009,07,18,04,07,19.00
2009,07,18,04,08,19.10
2009,07,18,04,09,19.10
2009,07,18,04,10,19.10
2009,07,18,04,11,19.10
2009,07,18,04,12,19.10
2009,07,18,04,13,19.20
2009,07,18,04,14,19.20
2009,07,18,04,15,19.20
2009,07,18,04,16,19.20
2009,07,18,04,17,19.20
2009,07,18,04,18,19.20
2009,07,18,04,19,19.20
2009,07,18,04,20,19.20
2009,07,18,04,21,19.20
2009,07,18,04,22,19.20
2009,07,18,04,23,19.20
2009,07,18,04,24,19.20
2009,07,18,04,25,19.20
2009,07,18,04,26,19.20
2009,07,18,04,27,19.20
2009,07,18,04,28,19.20
2009,07,18,04,29,19.20
2009,07,18,04,30,19.20
2009,07,18,04,31,19.20
2009,07,18,04,32,19.20
2009,07,18,04,33,19.20
2009,07,18,04,34,19.20
2009,07,18,04,35,19.20
2009,07,18,04,36,19.20
2009,07,18,04,37,19.20
2009,07,18,04,38,19.20
2009,07,18,04,39,19.20
2009,07,18,04,40,19.20
2009,07,18,04,41,19.20
2009,07,18,04,42,19.20
2009,07,18,04,43,19.20
2009,07,18,04,44,19.20
2009,07,18,04,45,19.20
2009,07,18,04,46,19.20
2009,07,18,04,47,19.20
2009,07,18,04,48,19.20
2009,07,18,04,49,19.20
2009,07,18,04,50,19.10
2009,07,18,04,51,19.10
2009,07,18,04,52,19.10
2009,07,18,04,53,19.10
2009,07,18,04,54,19.00
2009,07,18,04,55,19.00
2009,07,18,04,56,19.00
2009,07,18,04,57,18.90
2009,07,18,04,58,18.90
2009,07,18,04,59,18.90
2009,07,18,05,00,18.90
2009,07,18,05,01,18.90
2009,07,18,05,02,18.80
2009,07,18,05,03,18.80
2009,07,18,05,04,18.80
2009,07,18,05,05,18.80
2009,07,18,05,06,18.80
2009,07,18,05,07,18.80
2009,07,18,05,08,18.70
2009,07,18,05,09,18.70
2009,07,18,05,10,18.70
2009,07,18,05,11,18.70
2009,07,18,05,12,18.60
2009,07,18,05,13,18.60
2009,07,18,05,14,18.50
2009,07,18,05,15,18.50
2009,07,18,05,16,18.40
2009,07,18,05,17,18.40
2009,07,18,05,18,18.30
2009,07,18,05,19,18.30
2009,07,18,05,20,18.20
2009,07,18,05,21,18.20
2009,07,18,05,22,18.20
2009,07,18,05,23,18.10
2009,07,18,05,24,18.10
2009,07,18,05,25,18.10
2009,07,18,05,26,18.10
2009,07,18,05,27,18.10
2009,07,18,05,28,18.10
2009,07,18,05,29,18.10
2009,07,18,05,30,18.10
2009,07,18,05,31,18.10
2009,07,18,05,32,18.10
2009,07,18,05,33,18.10
2009,07,18,05,34,18.00
2009,07,18,05,35,18.00
2009,07,18,05,36,18.00
2009,07,18,05,37,18.00
2009,07,18,05,38,17.90
2009,07,18,05,39,17.90
2009,07,18,05,40,17.90
2009,07,18,05,41,17.90
2009,07,18,05,42,17.90
2009,07,18,05,43,17.90
2009,07,18,05,44,17.90
2009,07,18,05,45,17.90
2009,07,18,05,46,17.90
2009,07,18,05,47,17.90
2009,07,18,05,48,17.90
2009,07,18,05,49,17.90
2009,07,18,05,50,17.90
2009,07,18,05,51,17.90
2009,07,18,05,52,17.90
2009,07,18,05,53,17.90
2009,07,18,05,54,17.90
2009,07,18,05,55,17.90
2009,07,18,05,56,17.90
2009,07,18,05,57,17.90
2009,07,18,05,58,17.90
2009,07,18,05,59,17.90
2009,07,18,06,00,17.90
2009,07,18,06,01,17.90
2009,07,18,06,02,17.90
2009,07,18,06,03,17.90
2009,07,18,06,04,18.00
2009,07,18,06,05,18.00
2009,07,18,06,06,18.00
2009,07,18,06,07,18.00
2009,07,18,06,08,18.00
2009,07,18,06,09,18.10
2009,07,18,06,10,18.10
2009,07,18,06,11,18.20
2009,07,18,06,12,18.20
2009,07,18,06,13,18.30
2009,07,18,06,14,18.30
2009,07,18,06,15,18.30
2009,07,18,06,16,18.20
2009,07,18,06,17,18.20
2009,07,18,06,18,18.20
2009,07,18,06,19,18.10
2009,07,18,06,20,18.10
2009,07,18,06,21,18.10
2009,07,18,06,22,18.10
2009,07,18,06,23,18.00
2009,07,18,06,24,18.00
2009,07,18,06,25,18.00
2009,07,18,06,26,18.00
2009,07,18,06,27,18.10
2009,07,18,06,28,18.10
2009,07,18,06,29,18.20
2009,07,18,06,30,18.30
2009,07,18,06,31,18.40
2009,07,18,06,32,18.50
2009,07,18,06,33,18.60
2009,07,18,06,34,18.70
2009,07,18,06,35,18.80
2009,07,18,06,36,18.90
2009,07,18,06,37,19.00
2009,07,18,06,38,19.10
2009,07,18,06,39,19.10
2009,07,18,06,40,19.20
2009,07,18,06,41,19.20
2009,07,18,06,42,19.30
2009,07,18,06,43,19.30
2009,07,18,06,44,19.30
2009,07,18,06,45,19.30
2009,07,18,06,46,19.30
2009,07,18,06,47,19.30
2009,07,18,06,48,19.20
2009,07,18,06,49,19.20
2009,07,18,06,50,19.10
2009,07,18,06,51,19.10
2009,07,18,06,52,19.10
2009,07,18,06,53,19.10
2009,07,18,06,54,19.10
2009,07,18,06,55,19.00
2009,07,18,06,56,19.00
2009,07,18,06,57,19.00
2009,07,18,06,58,19.10
2009,07,18,06,59,19.10
2009,07,18,07,00,19.20
2009,07,18,07,01,19.20
2009,07,18,07,02,19.30
2009,07,18,07,03,19.40
2009,07,18,07,04,19.50
2009,07,18,07,05,19.60
2009,07,18,07,06,19.70
2009,07,18,07,07,19.80
2009,07,18,07,08,19.80
2009,07,18,07,09,19.90
2009,07,18,07,10,19.90
2009,07,18,07,11,20.00
2009,07,18,07,12,20.00
2009,07,18,07,13,20.10
2009,07,18,07,14,20.10
2009,07,18,07,15,20.10
2009,07,18,07,16,20.20
2009,07,18,07,17,20.20
2009,07,18,07,18,20.20
2009,07,18,07,19,20.20
2009,07,18,07,20,20.20
2009,07,18,07,21,20.20
2009,07,18,07,22,20.30
2009,07,18,07,23,20.40
2009,07,18,07,24,20.40
2009,07,18,07,25,20.50
2009,07,18,07,26,20.50
2009,07,18,07,27,20.60
2009,07,18,07,28,20.70
2009,07,18,07,29,20.70
2009,07,18,07,30,20.80
2009,07,18,07,31,20.70
2009,07,18,07,32,20.60
2009,07,18,07,33,20.60
2009,07,18,07,34,20.50
2009,07,18,07,35,20.40
2009,07,18,07,36,20.40
2009,07,18,07,37,20.50
2009,07,18,07,38,20.50
2009,07,18,07,39,20.60
2009,07,18,07,40,20.60
2009,07,18,07,41,20.60
2009,07,18,07,42,20.60
2009,07,18,07,43,20.70
2009,07,18,07,44,20.70
2009,07,18,07,45,20.70
2009,07,18,07,46,20.70
2009,07,18,07,47,20.70
2009,07,18,07,48,20.80
2009,07,18,07,49,20.80
2009,07,18,07,50,20.80
2009,07,18,07,51,20.80
2009,07,18,07,52,20.80
2009,07,18,07,53,20.80
2009,07,18,07,54,20.70
2009,07,18,07,55,20.60
2009,07,18,07,56,20.40
2009,07,18,07,57,20.30
2009,07,18,07,58,20.20
2009,07,18,07,59,20.20
2009,07,18,08,00,20.20
2009,07,18,08,01,20.10
2009,07,18,08,02,20.00
2009,07,18,08,03,20.00
2009,07,18,08,04,20.00
2009,07,18,08,05,20.10
2009,07,18,08,06,20.10
2009,07,18,08,07,20.10
2009,07,18,08,08,20.20
2009,07,18,08,09,20.20
2009,07,18,08,10,20.30
2009,07,18,08,11,20.30
2009,07,18,08,12,20.30
2009,07,18,08,13,20.30
2009,07,18,08,14,20.30
2009,07,18,08,15,20.40
2009,07,18,08,16,20.50
2009,07,18,08,17,20.50
2009,07,18,08,18,20.60
2009,07,18,08,19,20.70
2009,07,18,08,20,20.70
2009,07,18,08,21,20.70
2009,07,18,08,22,20.70
2009,07,18,08,23,20.70
2009,07,18,08,24,20.80
2009,07,18,08,25,20.80
2009,07,18,08,26,20.90
2009,07,18,08,27,21.00
2009,07,18,08,28,21.10
2009,07,18,08,29,21.20
2009,07,18,08,30,21.30
2009,07,18,08,31,21.30
2009,07,18,08,32,21.30
2009,07,18,08,33,21.30
2009,07,18,08,34,21.30
2009,07,18,08,35,21.30
2009,07,18,08,36,21.20
2009,07,18,08,37,21.10
2009,07,18,08,38,21.10
2009,07,18,08,39,21.10
2009,07,18,08,40,21.20
2009,07,18,08,41,21.20
2009,07,18,08,42,21.30
2009,07,18,08,43,21.40
2009,07,18,08,44,21.30
2009,07,18,08,45,21.20
2009,07,18,08,46,21.10
2009,07,18,08,47,21.20
2009,07,18,08,48,21.20
2009,07,18,08,49,21.40
2009,07,18,08,50,21.40
2009,07,18,08,51,21.40
2009,07,18,08,52,21.40
2009,07,18,08,53,21.40
2009,07,18,08,54,21.40
2009,07,18,08,55,21.40
2009,07,18,08,56,21.30
2009,07,18,08,57,21.20
2009,07,18,08,58,21.20
2009,07,18,08,59,21.10
2009,07,18,09,00,21.10
2009,07,18,09,01,21.00
2009,07,18,09,02,20.90
2009,07,18,09,03,20.80
2009,07,18,09,04,20.70
2009,07,18,09,05,20.50
2009,07,18,09,06,20.40
2009,07,18,09,07,20.40
2009,07,18,09,08,20.40
2009,07,18,09,09,20.50
2009,07,18,09,10,20.50
2009,07,18,09,11,20.50
2009,07,18,09,12,20.60
2009,07,18,09,13,20.60
2009,07,18,09,14,20.60
2009,07,18,09,15,20.60
2009,07,18,09,16,20.70
2009,07,18,09,17,20.60
2009,07,18,09,18,20.60
2009,07,18,09,19,20.60
2009,07,18,09,20,20.60
2009,07,18,09,21,20.50
2009,07,18,09,22,20.40
2009,07,18,09,23,20.30
2009,07,18,09,24,20.30
2009,07,18,09,25,20.30
2009,07,18,09,26,20.30
2009,07,18,09,27,20.30
2009,07,18,09,28,20.20
2009,07,18,09,29,20.20
2009,07,18,09,30,20.20
2009,07,18,09,31,20.10
2009,07,18,09,32,20.00
2009,07,18,09,33,20.00
2009,07,18,09,34,20.00
2009,07,18,09,35,20.00
2009,07,18,09,36,20.00
2009,07,18,09,37,20.00
2009,07,18,09,38,20.00
2009,07,18,09,39,20.00
2009,07,18,09,40,20.10
2009,07,18,09,41,20.00
2009,07,18,09,42,19.90
2009,07,18,09,43,19.80
2009,07,18,09,44,19.80
2009,07,18,09,45,19.80
2009,07,18,09,46,19.80
2009,07,18,09,47,19.90
2009,07,18,09,48,19.90
2009,07,18,09,49,19.90
2009,07,18,09,50,19.90
2009,07,18,09,51,19.90
2009,07,18,09,52,19.90
2009,07,18,09,53,20.00
2009,07,18,09,54,20.00
2009,07,18,09,55,20.00
2009,07,18,09,56,20.10
2009,07,18,09,57,20.20
2009,07,18,09,58,20.30
2009,07,18,09,59,20.40
2009,07,18,10,00,20.50
2009,07,18,10,01,20.60
2009,07,18,10,02,20.80
2009,07,18,10,03,20.90
2009,07,18,10,04,20.90
2009,07,18,10,05,20.90
2009,07,18,10,06,20.90
2009,07,18,10,07,20.90
2009,07,18,10,08,20.80
2009,07,18,10,09,20.80
2009,07,18,10,10,20.80
2009,07,18,10,11,20.70
2009,07,18,10,12,20.40
2009,07,18,10,13,20.30
2009,07,18,10,14,20.20
2009,07,18,10,15,20.20
2009,07,18,10,16,20.20
2009,07,18,10,17,20.30
2009,07,18,10,18,20.30
2009,07,18,10,19,20.40
2009,07,18,10,20,20.40
2009,07,18,10,21,20.40
2009,07,18,10,22,20.40
2009,07,18,10,23,20.50
2009,07,18,10,24,20.70
2009,07,18,10,25,20.70
2009,07,18,10,26,20.80
2009,07,18,10,27,20.80
2009,07,18,10,28,20.80
2009,07,18,10,29,20.80
2009,07,18,10,30,20.90
2009,07,18,10,31,21.00
2009,07,18,10,32,21.10
2009,07,18,10,33,21.30
2009,07,18,10,34,21.40
2009,07,18,10,35,21.50
2009,07,18,10,36,21.60
2009,07,18,10,37,21.70
2009,07,18,10,38,21.70
2009,07,18,10,39,21.70
2009,07,18,10,40,21.70
2009,07,18,10,41,21.70
2009,07,18,10,42,21.70
2009,07,18,10,43,21.70
2009,07,18,10,44,21.60
2009,07,18,10,45,21.60
2009,07,18,10,46,21.60
2009,07,18,10,47,21.60
2009,07,18,10,48,21.70
2009,07,18,10,49,21.60
2009,07,18,10,50,21.50
2009,07,18,10,51,21.50
2009,07,18,10,52,21.50
2009,07,18,10,53,21.50
2009,07,18,10,54,21.40
2009,07,18,10,55,21.40
2009,07,18,10,56,21.50
2009,07,18,10,57,21.50
2009,07,18,10,58,21.60
2009,07,18,10,59,21.70
2009,07,18,11,00,21.60
2009,07,18,11,01,21.40
2009,07,18,11,02,21.40
2009,07,18,11,03,21.40
2009,07,18,11,04,21.40
2009,07,18,11,05,21.50
2009,07,18,11,06,21.50
2009,07,18,11,07,21.60
2009,07,18,11,08,21.70
2009,07,18,11,09,21.80
2009,07,18,11,10,21.80
2009,07,18,11,11,21.90
2009,07,18,11,12,22.00
2009,07,18,11,13,22.00
2009,07,18,11,14,21.90
2009,07,18,11,15,22.00
2009,07,18,11,16,22.00
2009,07,18,11,17,21.90
2009,07,18,11,18,21.80
2009,07,18,11,19,21.70
2009,07,18,11,20,21.60
2009,07,18,11,21,21.60
2009,07,18,11,22,21.70
2009,07,18,11,23,21.60
2009,07,18,11,24,21.40
2009,07,18,11,25,21.40
2009,07,18,11,26,21.40
2009,07,18,11,27,21.50
2009,07,18,11,28,21.60
2009,07,18,11,29,21.70
2009,07,18,11,30,21.80
2009,07,18,11,31,21.80
2009,07,18,11,32,21.80
2009,07,18,11,33,21.80
2009,07,18,11,34,21.80
2009,07,18,11,35,21.90
2009,07,18,11,36,22.10
2009,07,18,11,37,22.10
2009,07,18,11,38,22.10
2009,07,18,11,39,22.00
2009,07,18,11,40,21.90
2009,07,18,11,41,21.90
2009,07,18,11,42,22.00
2009,07,18,11,43,21.90
2009,07,18,11,44,22.00
2009,07,18,11,45,22.10
2009,07,18,11,46,22.10
2009,07,18,11,47,22.00
2009,07,18,11,48,22.10
2009,07,18,11,49,22.00
2009,07,18,11,50,22.10
2009,07,18,11,51,22.20
2009,07,18,11,52,22.20
2009,07,18,11,53,22.20
2009,07,18,11,54,22.20
2009,07,18,11,55,22.10
2009,07,18,11,56,22.10
2009,07,18,11,57,22.20
2009,07,18,11,58,22.30
2009,07,18,11,59,22.30
2009,07,18,12,00,22.10
2009,07,18,12,01,22.00
2009,07,18,12,02,21.90
2009,07,18,12,03,22.00
2009,07,18,12,04,22.00
2009,07,18,12,05,22.00
2009,07,18,12,06,21.90
2009,07,18,12,07,21.90
2009,07,18,12,08,21.90
2009,07,18,12,09,22.00
2009,07,18,12,10,22.00
2009,07,18,12,11,22.10
2009,07,18,12,12,22.00
2009,07,18,12,13,22.00
2009,07,18,12,14,22.00
2009,07,18,12,15,22.10
2009,07,18,12,16,22.10
2009,07,18,12,17,21.90
2009,07,18,12,18,21.70
2009,07,18,12,19,21.60
2009,07,18,12,20,21.60
2009,07,18,12,21,21.70
2009,07,18,12,22,21.80
2009,07,18,12,23,21.80
2009,07,18,12,24,21.90
2009,07,18,12,25,21.90
2009,07,18,12,26,22.00
2009,07,18,12,27,22.10
2009,07,18,12,28,22.20
2009,07,18,12,29,22.20
2009,07,18,12,30,22.10
2009,07,18,12,31,22.10
2009,07,18,12,32,22.10
2009,07,18,12,33,22.10
2009,07,18,12,34,22.10
2009,07,18,12,35,22.10
2009,07,18,12,36,22.10
2009,07,18,12,37,22.10
2009,07,18,12,38,22.00
2009,07,18,12,39,21.90
2009,07,18,12,40,21.80
2009,07,18,12,41,21.70
2009,07,18,12,42,21.60
2009,07,18,12,43,21.60
2009,07,18,12,44,21.60
2009,07,18,12,45,21.60
2009,07,18,12,46,21.50
2009,07,18,12,47,21.50
2009,07,18,12,48,21.50
2009,07,18,12,49,21.60
2009,07,18,12,50,21.50
2009,07,18,12,51,21.60
2009,07,18,12,52,21.70
2009,07,18,12,53,21.70
2009,07,18,12,54,21.80
2009,07,18,12,55,21.80
2009,07,18,12,56,21.90
2009,07,18,12,57,22.10
2009,07,18,12,58,22.20
2009,07,18,12,59,22.30
2009,07,18,13,00,22.20
2009,07,18,13,01,22.20
2009,07,18,13,02,22.20
2009,07,18,13,03,22.20
2009,07,18,13,04,22.10
2009,07,18,13,05,22.00
2009,07,18,13,06,21.90
2009,07,18,13,07,21.80
2009,07,18,13,08,21.80
2009,07,18,13,09,21.80
2009,07,18,13,10,21.80
2009,07,18,13,11,21.90
2009,07,18,13,12,22.10
2009,07,18,13,13,22.20
2009,07,18,13,14,22.20
2009,07,18,13,15,22.10
2009,07,18,13,16,21.90
2009,07,18,13,17,21.80
2009,07,18,13,18,21.70
2009,07,18,13,19,21.80
2009,07,18,13,20,21.90
2009,07,18,13,21,22.00
2009,07,18,13,22,22.10
2009,07,18,13,23,22.20
2009,07,18,13,24,22.20
2009,07,18,13,25,22.20
2009,07,18,13,26,22.20
2009,07,18,13,27,22.10
2009,07,18,13,28,22.20
2009,07,18,13,29,22.20
2009,07,18,13,30,22.20
2009,07,18,13,31,22.20
2009,07,18,13,32,22.20
2009,07,18,13,33,22.20
2009,07,18,13,34,22.20
2009,07,18,13,35,22.10
2009,07,18,13,36,22.10
2009,07,18,13,37,21.90
2009,07,18,13,38,21.80
2009,07,18,13,39,21.70
2009,07,18,13,40,21.70
2009,07,18,13,41,21.70
2009,07,18,13,42,21.80
2009,07,18,13,43,21.70
2009,07,18,13,44,21.80
2009,07,18,13,45,21.90
2009,07,18,13,46,21.90
2009,07,18,13,47,22.00
2009,07,18,13,48,22.10
2009,07,18,13,49,22.20
2009,07,18,13,50,22.20
2009,07,18,13,51,22.30
2009,07,18,13,52,22.30
2009,07,18,13,53,22.30
2009,07,18,13,54,22.20
2009,07,18,13,55,22.00
2009,07,18,13,56,21.90
2009,07,18,13,57,21.80
2009,07,18,13,58,21.80
2009,07,18,13,59,21.80
2009,07,18,14,00,21.90
2009,07,18,14,01,22.10
2009,07,18,14,02,22.20
2009,07,18,14,03,22.30
2009,07,18,14,04,22.10
2009,07,18,14,05,22.00
2009,07,18,14,06,22.00
2009,07,18,14,07,22.00
2009,07,18,14,08,22.00
2009,07,18,14,09,22.00
2009,07,18,14,10,22.00
2009,07,18,14,11,22.00
2009,07,18,14,12,21.90
2009,07,18,14,13,21.80
2009,07,18,14,14,21.90
2009,07,18,14,15,21.90
2009,07,18,14,16,22.00
2009,07,18,14,17,22.20
2009,07,18,14,18,22.20
2009,07,18,14,19,22.30
2009,07,18,14,20,22.20
2009,07,18,14,21,22.20
2009,07,18,14,22,22.20
2009,07,18,14,23,22.30
2009,07,18,14,24,22.30
2009,07,18,14,25,22.20
2009,07,18,14,26,22.10
2009,07,18,14,27,22.20
2009,07,18,14,28,22.30
2009,07,18,14,29,22.20
2009,07,18,14,30,22.10
2009,07,18,14,31,22.20
2009,07,18,14,32,22.40
2009,07,18,14,33,22.50
2009,07,18,14,34,22.60
2009,07,18,14,35,22.80
2009,07,18,14,36,22.90
2009,07,18,14,37,23.10
2009,07,18,14,38,23.20
2009,07,18,14,39,23.40
2009,07,18,14,40,23.30
2009,07,18,14,41,23.20
2009,07,18,14,42,23.20
2009,07,18,14,43,23.20
2009,07,18,14,44,23.00
2009,07,18,14,45,22.90
2009,07,18,14,46,22.90
2009,07,18,14,47,23.00
2009,07,18,14,48,23.10
2009,07,18,14,49,23.20
2009,07,18,14,50,23.20
2009,07,18,14,51,23.20
2009,07,18,14,52,23.10
2009,07,18,14,53,23.10
2009,07,18,14,54,23.10
2009,07,18,14,55,23.10
2009,07,18,14,56,23.10
2009,07,18,14,57,23.10
2009,07,18,14,58,23.10
2009,07,18,14,59,23.00
2009,07,18,15,00,23.00
2009,07,18,15,01,23.10
2009,07,18,15,02,23.10
2009,07,18,15,03,23.20
2009,07,18,15,04,23.30
2009,07,18,15,05,23.30
2009,07,18,15,06,23.30
2009,07,18,15,07,23.20
2009,07,18,15,08,23.00
2009,07,18,15,09,22.80
2009,07,18,15,10,22.80
2009,07,18,15,11,22.80
2009,07,18,15,12,22.70
2009,07,18,15,13,22.70
2009,07,18,15,14,22.70
2009,07,18,15,15,22.60
2009,07,18,15,16,22.70
2009,07,18,15,17,22.70
2009,07,18,15,18,22.80
2009,07,18,15,19,22.80
2009,07,18,15,20,22.90
2009,07,18,15,21,23.10
2009,07,18,15,22,23.10
2009,07,18,15,23,23.10
2009,07,18,15,24,23.20
2009,07,18,15,25,23.30
2009,07,18,15,26,23.20
2009,07,18,15,27,23.30
2009,07,18,15,28,23.40
2009,07,18,15,29,23.40
2009,07,18,15,30,23.30
2009,07,18,15,31,23.40
2009,07,18,15,32,23.40
2009,07,18,15,33,23.40
2009,07,18,15,34,23.40
2009,07,18,15,35,23.40
2009,07,18,15,36,23.30
2009,07,18,15,37,23.30
2009,07,18,15,38,23.30
2009,07,18,15,39,23.30
2009,07,18,15,40,23.30
2009,07,18,15,41,23.30
2009,07,18,15,42,23.30
2009,07,18,15,43,23.30
2009,07,18,15,44,23.30
2009,07,18,15,45,23.20
2009,07,18,15,46,23.10
2009,07,18,15,47,23.20
2009,07,18,15,48,23.10
2009,07,18,15,49,23.00
2009,07,18,15,50,23.00
2009,07,18,15,51,22.90
2009,07,18,15,52,22.90
2009,07,18,15,53,22.80
2009,07,18,15,54,22.80
2009,07,18,15,55,22.80
2009,07,18,15,56,22.90
2009,07,18,15,57,22.80
2009,07,18,15,58,22.90
2009,07,18,15,59,22.90
2009,07,18,16,00,22.90
2009,07,18,16,01,22.90
2009,07,18,16,02,22.80
2009,07,18,16,03,22.80
2009,07,18,16,04,22.90
2009,07,18,16,05,22.90
2009,07,18,16,06,22.90
2009,07,18,16,07,23.00
2009,07,18,16,08,23.10
2009,07,18,16,09,23.10
2009,07,18,16,10,23.10
2009,07,18,16,11,23.10
2009,07,18,16,12,23.10
2009,07,18,16,13,23.10
2009,07,18,16,14,23.20
2009,07,18,16,15,23.20
2009,07,18,16,16,23.20
2009,07,18,16,17,23.20
2009,07,18,16,18,23.10
2009,07,18,16,19,23.00
2009,07,18,16,20,23.00
2009,07,18,16,21,23.00
2009,07,18,16,22,23.10
2009,07,18,16,23,23.20
2009,07,18,16,24,23.20
2009,07,18,16,25,23.30
2009,07,18,16,26,23.30
2009,07,18,16,27,23.30
2009,07,18,16,28,23.30
2009,07,18,16,29,23.20
2009,07,18,16,30,23.20
2009,07,18,16,31,23.20
2009,07,18,16,32,23.00
2009,07,18,16,33,22.90
2009,07,18,16,34,22.80
2009,07,18,16,35,22.70
2009,07,18,16,36,22.70
2009,07,18,16,37,22.70
2009,07,18,16,38,22.80
2009,07,18,16,39,23.10
2009,07,18,16,40,23.30
2009,07,18,16,41,23.30
2009,07,18,16,42,23.30
2009,07,18,16,43,23.20
2009,07,18,16,44,23.10
2009,07,18,16,45,23.10
2009,07,18,16,46,23.20
2009,07,18,16,47,23.30
2009,07,18,16,48,23.20
2009,07,18,16,49,23.10
2009,07,18,16,50,23.10
2009,07,18,16,51,23.20
2009,07,18,16,52,23.30
2009,07,18,16,53,23.40
2009,07,18,16,54,23.60
2009,07,18,16,55,23.70
2009,07,18,16,56,23.80
2009,07,18,16,57,24.00
2009,07,18,16,58,24.10
2009,07,18,16,59,24.20
2009,07,18,17,00,24.20
2009,07,18,17,01,24.20
2009,07,18,17,02,24.10
2009,07,18,17,03,24.10
2009,07,18,17,04,24.00
2009,07,18,17,05,23.90
2009,07,18,17,06,23.80
2009,07,18,17,07,23.80
2009,07,18,17,08,23.70
2009,07,18,17,09,23.70
2009,07,18,17,10,23.70
2009,07,18,17,11,23.80
2009,07,18,17,12,23.80
2009,07,18,17,13,23.90
2009,07,18,17,14,23.90
2009,07,18,17,15,24.00
2009,07,18,17,16,24.10
2009,07,18,17,17,24.00
2009,07,18,17,18,24.00
2009,07,18,17,19,24.10